FW9167 Weather Reports


Display with metric or nautical units.
time (UTC)temp
F
wind
direction
speed
MPH
gust
MPH
rain 1hr
in
rain 24hr
in
rain mn
in
humidity
%
barometer
mb
20260904004606 51 219 0.0 1.0 0.00 0.00 0.76 92 1010.9
20260904003103 52 217 1.0 2.0 0.00 0.00 0.72 92 1010.9
20260904001602 53 281 0.0 0.0 0.00 0.00 0.69 91 1010.9
20260904000105 53 281 0.0 0.0 0.00 0.00 0.65 91 1010.8
20260903234602 53 283 0.0 0.0 0.00 0.00 0.61 90 1011.0
20260903233104 53 282 0.0 1.0 0.00 0.00 0.58 89 1011.2
20260903231604 54 233 0.0 1.0 0.00 0.00 0.54 92 1011.3
20260903224607 54 210 0.0 2.0 0.00 0.00 0.51 90 1011.5
20260903223102 55 354 0.0 1.0 0.00 0.00 0.50 90 1011.7
20260903221602 54 354 0.0 1.0 0.00 0.00 0.49 91 1012.1
20260903214603 54 276 0.0 1.0 0.00 0.00 0.47 90 1012.7
20260903213103 54 282 0.0 1.0 0.00 0.00 0.43 89 1012.8
20260903211602 54 41 0.0 3.0 0.00 0.00 0.42 89 1012.5
20260903210103 54 22 0.0 2.0 0.00 0.00 0.39 87 1012.7
20260903203106 56 288 0.0 1.0 0.00 0.00 0.35 84 1013.0
20260903201604 58 123 0.0 0.0 0.00 0.00 0.29 82 1013.0
20260903200103 59 122 0.0 1.0 0.00 0.00 0.24 79 1013.2
20260903194603 60 128 0.0 1.0 0.00 0.00 0.22 74 1013.0
20260903193103 60 108 0.0 4.0 0.00 0.00 0.22 72 1012.9
20260903191605 61 139 0.0 3.0 0.00 0.00 0.22 71 1013.2
20260903183106 58 17 0.0 5.0 0.00 0.00 0.22 78 1013.5
20260903181606 58 323 1.0 2.0 0.00 0.00 0.22 79 1013.7
20260903180104 58 309 0.0 2.0 0.00 0.00 0.22 79 1013.9
20260903174603 57 208 0.0 1.0 0.00 0.00 0.22 80 1014.0
20260903173103 57 103 0.0 1.0 0.00 0.00 0.22 79 1014.0
20260903171603 57 110 0.0 2.0 0.00 0.00 0.22 80 1014.0
20260903170105 58 97 0.0 1.0 0.00 0.00 0.22 78 1014.0
20260903164603 58 126 1.0 3.0 0.00 0.00 0.22 80 1013.9
20260903163104 57 79 1.0 3.0 0.00 0.00 0.22 83 1014.0
20260903161605 55 22 2.0 4.0 0.00 0.00 0.22 89 1014.0
20260903154604 54 145 0.0 3.0 0.00 0.00 0.22 90 1014.2
20260903151603 52 23 0.0 0.0 0.00 0.00 0.22 95 1013.9
20260903150107 52 30 0.0 1.0 0.00 0.00 0.22 95 1013.9
20260903144604 52 348 0.0 0.0 0.00 0.00 0.21 95 1013.8
20260903143103 51 113 0.0 1.0 0.00 0.00 0.21 95 1013.6
20260903141603 51 249 0.0 0.0 0.00 0.00 0.21 95 1013.2
20260903140104 51 222 0.0 2.0 0.00 0.00 0.21 95 1013.1
20260903134602 51 115 0.0 1.0 0.00 0.00 0.21 94 1012.8
20260903130104 51 311 0.0 1.0 0.00 0.00 0.17 94 1012.5
20260903124604 51 334 0.0 1.0 0.00 0.00 0.17 94 1012.3
20260903123103 51 280 0.0 3.0 0.00 0.00 0.14 94 1012.3
20260903121604 51 284 0.0 2.0 0.00 0.00 0.13 94 1012.2
20260903120106 52 270 0.0 1.0 0.00 0.00 0.13 94 1012.3
20260903114605 51 259 0.0 0.0 0.00 0.00 0.13 94 1012.4
20260903113109 51 258 0.0 1.0 0.00 0.00 0.13 94 1012.4
20260903111602 51 255 0.0 0.0 0.00 0.00 0.12 94 1012.4
20260903104603 52 281 0.0 1.0 0.00 0.00 0.07 93 1012.5
20260903103102 51 248 0.0 1.0 0.00 0.00 0.05 93 1012.5
20260903101607 52 360 0.0 1.0 0.00 0.00 0.05 93 1012.5
20260903100104 52 288 0.0 1.0 0.00 0.00 0.04 93 1012.5
20260903094607 52 319 0.0 2.0 0.00 0.00 0.03 93 1012.4
20260903093104 52 280 0.0 1.0 0.00 0.00 0.03 93 1012.5
20260903091605 52 316 0.0 1.0 0.00 0.00 0.03 93 1012.7
20260903083102 52 346 1.0 2.0 0.00 0.00 0.03 93 1012.7
20260903081602 52 311 0.0 1.0 0.00 0.00 0.02 93 1012.7
20260903080103 52 282 0.0 0.0 0.00 0.00 0.02 92 1012.8
20260903074604 52 283 0.0 0.0 0.00 0.00 0.01 92 1012.8
20260903071607 52 273 0.0 1.0 0.00 0.00 0.01 91 1012.5
20260903064603 52 326 0.0 1.0 0.00 0.00 0.08 90 1012.5
20260903063102 53 34 1.0 3.0 0.00 0.00 0.07 89 1012.7
20260903061602 53 315 1.0 3.0 0.00 0.00 0.05 87 1012.7
20260903054605 54 305 0.0 1.0 0.00 0.00 0.02 82 1012.4
20260903051602 56 294 0.0 4.0 0.00 0.00 0.00 76 1012.3
20260903050107 56 304 1.0 7.0 0.00 0.00 0.00 74 1012.3
20260903044606 57 325 0.0 2.0 0.00 0.00 0.00 70 1012.5
20260903043103 57 287 0.0 5.0 0.00 0.00 0.00 64 1012.4
20260903041606 56 274 0.0 4.0 0.00 0.00 0.00 73 1012.4
20260903040104 56 297 0.0 3.0 0.00 0.00 0.00 76 1012.4
20260903034602 58 280 0.0 4.0 0.00 0.00 0.00 64 1012.4
20260903033103 60 280 2.0 7.0 0.00 0.00 0.00 59 1012.0
20260903031606 61 250 7.0 10.0 0.00 0.00 0.00 52 1011.9
20260903030103 62 257 1.0 9.0 0.00 0.00 0.00 51 1011.8
20260903024605 61 281 2.0 12.0 0.00 0.00 0.00 55 1011.9
20260903023105 62 271 9.0 12.0 0.00 0.00 0.00 53 1011.5
20260903021604 63 250 8.0 13.0 0.00 0.00 0.00 49 1011.3
20260903020103 65 251 6.0 18.0 0.00 0.00 0.00 43 1011.1
20260903014603 65 269 2.0 15.0 0.00 0.00 0.00 42 1011.1
20260903013106 67 220 6.0 16.0 0.00 0.00 0.00 40 1011.1
20260903011606 67 240 0.0 12.0 0.00 0.00 0.00 36 1011.1